sat.trackr.live / text

‹ back to catalog

STARLINK-35987

NORAD 66860 · 2025-281N

PAYLOAD ACTIVE UNKNOWN

§ Identity

Operator
Country
US
Launch date
2025-12-02
Launch site
AFETR
Launch vehicle
Mass (kg)
RCS (m²)

Purposes: comms

External: N2YO · Heavens-Above · Gunter

§ Orbital elements

Epoch: 2026-05-25T00:51:13.316256Z

Period
94.27 min
Inclination
43.0011°
Eccentricity
0.0001214
Mean motion
15.27553242 rev/d
Perigee alt
482.3 km
Apogee alt
484.0 km
Semi-major
6,861.3 km
B*
-3.2142e-5
RAAN
272.1371°
Arg perigee
334.8583°
Mean anomaly
25.2210°
Rev number
2,786

§ Raw data

STARLINK-359871 66860U 25281N   26145.03557079 -.00001146  00000+0 -32142-4 0  99972 66860  43.0011 272.1371 0001214 334.8583  25.2210 15.27553242 27863

JSON: /api/v1/satellites/66860 · /tle

For live sub-satellite position, see the globe view (requires WebGL).

§ Visibility from observer

Set your observer location to see the next 7 days of passes ≥ 10°. The values pass through the URL so the page stays shareable.

No JS? Fill the form by hand. The geolocation button needs JavaScript.